User: anonymous   Login
Location: Unspecified
(0.0000°N, 0.0000°E)
Time: 01:44:22
(UTC+00:00)
Language:

USA 224 - Orbit

View from above orbital plane
View from above orbital plane
View from above satellite
View from above satellite

Ground track
Ground track

The orbit data is extracted from the following two-line orbital elements,

1 37348U 11002A   15104.95046162 0.00020000  00000-0  17996-3 0    03
2 37348  97.9702 224.4217 0511583 277.1148  82.8851 14.83606939    07
Epoch (UTC): 14 April 2015 22:48:39
Eccentricity: 0.0511583
inclination: 97.9702°
perigee height: 260 km
apogee height: 976 km
right ascension of ascending node: 224.4217°
argument of perigee: 277.1148°
revolutions per day: 14.83606939
mean anomaly at epoch: 82.8851°
orbit number at epoch: 0

The dashed part of the orbit path shows where the satellite is in the earth's shadow,  

DLR